Location: Paderno d�Adda
(45.6667°N, 9.4333°E)
Time: 01:27:17
(UTC+00:00)

Cosmos 1937 Rocket - Pass Details

Date: 19 September 2020
Orbit: 747 x 779 km, 74.0° (Epoch: 26 October)

Event Time Altitude Azimuth Distance (km) Brightness Sun altitude
Rises 18:14:50 0° 200° (SSW) 3,233 6.9 -9.5°
Reaches altitude 10° 18:17:13 10° 201° (SSW) 2,306 6.1 -9.9°
Maximum altitude 18:22:28 87° 289° (WNW) 773 3.5 -10.8°
Drops below altitude 10° 18:27:42 10° 21° (NNE) 2,301 5.9 -11.7°
Sets 18:30:04 0° 22° (NNE) 3,225 6.7 -12.1°
